Content
SEND FEEDBACK

Daily
Averages
Monthly
Summary
Malaysia

KAMPONG BADANG, MALAYSIA


Home > Asia > Malaysia
Elevation: 16 feet     Latitude: 06 10N     Longitude: 102 16E

WEATHER
 
SELECT A DAY
Number of Records: 115,416;   Date Range: 7/17/00 - 9/29/14
 
SHARE

PRINT THIS DATA

[ ← Previous Day ]
WEATHER ALMANAC - JANUARY 31, 2013
[ Next Day → ]
[ °C ]   °F
Weather ElementAverageHighLow
Temperature81 °F84.2 °F (12:00 pm)78.8 °F (1:00 am)
Dewpoint74.4 °F75.2 °F (2:00 am)73.4 °F (1:00 am)
Humidity79.2 %89 % (2:00 am)66 % (2:00 pm)
Barometer29.92 in29.98 in (11:00 am)29.86 in (5:00 pm)
Wind Speed10.6 mph16.1 mph (2:00 pm)
Weather ElementAverage
Visibility6.5 mi
Wind DirectionE (89 °)

Weather ElementTotal
Precipitation---
Cooling Degree Days16.5 (Base 65)
Growing Degree Days31.5 (Base 50)
Averaged from 31 records on January 31, 2013
WEATHER CONDITIONS BREAKOUT
WIND DIRECTION BREAKOUT
WEATHER BY HOUR - JANUARY 31, 2013
[ °C ]   °F
Local TimeTemperatureDewpointHumidityBarometerVisibilityWind DirectionWind SpeedGust SpeedPrecipitationEventsConditions
1:00 AM78.8 °F73.4 °F83 %29.95 in6.2 miEast (80°)6.9 mphMostly Cloudy
2:00 AM79.0 °F74.0 °F81 %29.95 in7.0 miEast (90°)4.6 mphHaze
2:00 AM78.8 °F75.2 °F89 %29.95 in6.2 miEast (90°)4.6 mphMostly Cloudy
3:00 AM78.8 °F75.2 °F89 %29.92 in6.2 miEast (90°)6.9 mphMostly Cloudy
4:00 AM78.8 °F73.4 °F83 %29.92 in6.2 miEast (100°)6.9 mphMostly Cloudy
5:00 AM80.0 °F74.0 °F79 %29.91 in7.0 miEast (80°)9.2 mphHaze
5:00 AM78.8 °F75.2 °F89 %29.89 in6.2 miEast (80°)9.2 mphMostly Cloudy
6:00 AM78.8 °F73.4 °F83 %29.92 in6.2 miEast (100°)6.9 mphMostly Cloudy
7:00 AM78.8 °F73.4 °F83 %29.92 in6.2 miEast (100°)10.4 mphMostly Cloudy
8:00 AM80.0 °F74.0 °F76 %29.93 in6.0 miEast (100°)9.2 mphHaze
8:00 AM78.8 °F73.4 °F83 %29.92 in6.2 miEast (100°)9.2 mphMostly Cloudy
9:00 AM80.6 °F75.2 °F84 %29.95 in6.2 miEast (100°)9.2 mphMostly Cloudy
10:00 AM82.4 °F75.2 °F79 %29.95 in6.2 miEast (100°)11.5 mphMostly Cloudy
11:00 AM82.0 °F74.0 °F72 %29.98 in6.0 miEast (90°)10.4 mphMostly Cloudy
11:00 AM82.4 °F75.2 °F79 %29.98 in6.2 miEast (90°)10.4 mphMostly Cloudy
12:00 PM84.2 °F75.2 °F74 %29.95 in6.2 miEast (80°)13.8 mphMostly Cloudy
1:00 PM84.2 °F75.2 °F74 %29.95 in6.2 miEast (90°)15.0 mphMostly Cloudy
2:00 PM84.0 °F74.0 °F66 %29.93 in7.0 miEast (90°)16.1 mphHaze
2:00 PM84.2 °F75.2 °F74 %29.92 in6.2 miEast (90°)16.1 mphMostly Cloudy
3:00 PM82.4 °F75.2 °F79 %29.89 in6.2 miEast (100°)13.8 mphMostly Cloudy
4:00 PM84.2 °F75.2 °F74 %29.89 in6.2 miEast (90°)13.8 mphMostly Cloudy
5:00 PM83.0 °F74.0 °F69 %29.88 in9.0 miEast (100°)12.7 mphHaze
5:00 PM82.4 °F75.2 °F79 %29.86 in6.2 miEast (100°)12.7 mphMostly Cloudy
6:00 PM82.4 °F75.2 °F79 %29.86 in6.2 miEast (90°)11.5 mphMostly Cloudy
7:00 PM80.6 °F73.4 °F79 %29.86 in6.2 miEast (80°)11.5 mphMostly Cloudy
8:00 PM80.0 °F74.0 °F77 %29.90 in9.0 miEast (80°)11.5 mphHaze
8:00 PM80.6 °F73.4 °F79 %29.89 in6.2 miEast (80°)11.5 mphMostly Cloudy
9:00 PM80.6 °F73.4 °F79 %29.92 in6.2 miEast (80°)11.5 mphMostly Cloudy
10:00 PM80.6 °F73.4 °F79 %29.95 in6.2 miEast (80°)10.4 mphMostly Cloudy
11:00 PM80.0 °F74.0 °F78 %29.96 in7.0 miENE (70°)10.4 mphHaze
11:00 PM80.6 °F75.2 °F84 %29.95 in6.2 miENE (70°)10.4 mphMostly Cloudy
Hourly data recorded from WMKC, located miles away from Kampong Badang, Malaysia







STORIES FROM OUR PARTNERS